Tracking 22130 objects as of 21-Jan-2021
HD Live streaming from Space Station
objects crossing your sky now

STARLINK-55

Track STARLINK-55 now!
10-day predictions
STARLINK-55 is classified as:


NORAD ID: 44268
Int'l Code: 2019-029AK
Perigee: 347.1 km
Apogee: 354.0 km
Inclination: 53.0 °
Period: 91.4 minutes
Semi major axis: 6721 km
RCS: Unknown
Launch date: May 24, 2019
Source: United States (US)
Launch site: AIR FORCE EASTERN TEST RANGE (AFETR)
aabbcc
Your satellite tracking list
Your tracking list is empty




NASA's NSSDC Master Catalog

Two Line Element Set (TLE):
1 44268U 19029AK  21021.49079139  .00070999  00000-0  45933-3 0  9994
2 44268  52.9939 174.6237 0005130 323.3500  36.7167 15.75425572 92923
Source of the keplerian elements: AFSPC